DECAYED

STARLINK-4354, 53223 (Decayed)

Orbit data source: Space-Track

STARLINK-4354, 53223 was a payload satellite owned by SpaceX/Seattle (US) in LEO that was launched on Fri, 22 Jul 2022 UTC via an FALCON 9 launch vehicle from the Air Force Western Test Range (AFWTR). Payload-class satellites include a variety of spacecraft equipped with specific instruments for various scientific and technological missions. These include communications satellites like Starlink; space stations such as the ISS; scientific satellites like the Hubble; Earth observation satellites from companies like Planet Labs, Umbra, and HawkEye 360; GPS; miniature CubeSats for education and research; and military/defense satellites.

Not visible in the next 10 days
Identifier
53223, 2022-084AL
Orbit
Decayed
Country
Flag of USUS
Related business
Manufacturer
SpaceX/Seattle
Mission
Decayed Commercial Communications
Bus & Motor
STARLINK, Unknown motor
Mass
297 kg wet, ~275 kg dry
Launch date (UTC)
2022-07-22 (4 years ago)
Launch vehicle
FALCON 9
Launch site
Air Force Western Test Range (AFWTR)
Object type
Payload
Rocket body
Debris
Shape & HBR
Box + 1 Pan, 10.1 m
Radar Cross Section
13.562 m², Large (>1 m²)

Expand to show TLE details & history
Last TLE update: 1 year ago

TLE from 1 year ago
0 STARLINK-4354
1 53223U 22084AL  25069.09491389  .42483655  27498-5  16355-2 0  9990
2 53223  97.6292 137.8931 0016142 311.7883  87.6554 16.42302014144983
Epoch: 2025-03-10T02:16Z
TLE epoch observation values (Epoch: 2025-03-10T02:16:40.560Z)
Latitude
39.30118°
Longitude
-70.55117°
Altitude
164.997 km
Speed
7.811 km/s
True Right ascension
08h 46m 32s
True Declination
39° 07' 03"
Sunlit
Object was in full shadow at epoch
Visualization orbit readout
Latitude
Unknown
Longitude
Unknown
Altitude
Unknown
Speed
Unknown
Apparent Right ascension
Unknown
Apparent Declination
Unknown
Sunlit
N/A
Visualization observer readout
Local Sidereal Time
21:27:51
Azimuth
Unknown
Elevation
Unknown
Doppler factor
Unknown
Orbital elements
Apogee altitude
167.049 km
Perigee altitude
145.953 km
Semi-major axis
6,534.638 km
Eccentricity
0.00161
Inclination
97.6292°
RAAN
137.8931°
Arg. of periapsis
311.7883°
True anomaly
87.84023°
Mean anomaly
87.6554°
Eccentric anomaly
87.74782°
Mean motion
4.10876 °/min
Orbital period
87.62 mins
BSTAR
0.0016355
Loading maneuver chart data...
Computing Atmospheric mass density...
Loading historical data...
Loading historical data...
Loading historical data...
Loading historical data...
Loading historical data...
Loading historical data...
Loading historical data...

Documentation

Showing up to 5 results
|